#datetime,building,power
2022-08-22T00:00:00,kcc,35.39
2022-08-22T00:01:00,kcc,17.40
2022-08-22T00:02:00,kcc,17.40
2022-08-22T00:03:00,kcc,17.40
2022-08-22T00:05:00,kcc,35.39
2022-08-22T00:06:00,kcc,17.40
2022-08-22T00:08:00,kcc,32.99
2022-08-22T00:10:00,kcc,31.23
2022-08-22T00:12:00,kcc,33.57
2022-08-22T00:13:00,kcc,11.43
2022-08-22T00:15:00,kcc,27.60
2022-08-22T00:17:00,kcc,34.80
2022-08-22T00:19:00,kcc,32.99
2022-08-22T00:21:00,kcc,33.63
2022-08-22T00:22:00,kcc,15.59
2022-08-22T00:23:00,kcc,15.59
2022-08-22T00:24:00,kcc,11.43
2022-08-22T00:26:00,kcc,29.36
2022-08-22T00:27:00,kcc,17.40
2022-08-22T00:29:00,kcc,32.99
2022-08-22T00:30:00,kcc,18.05
2022-08-22T00:32:00,kcc,42.60
2022-08-22T00:34:00,kcc,31.17
2022-08-22T00:36:00,kcc,32.99
2022-08-22T00:38:00,kcc,31.82
2022-08-22T00:40:00,kcc,34.80
2022-08-22T00:41:00,kcc,15.59
2022-08-22T00:43:00,kcc,32.99
2022-08-22T00:44:00,kcc,7.85
2022-08-22T00:46:00,kcc,19.80
2022-08-22T00:48:00,kcc,31.17
2022-08-22T00:50:00,kcc,32.99
2022-08-22T00:51:00,kcc,17.40
2022-08-22T00:53:00,kcc,35.39
2022-08-22T00:55:00,kcc,39.02
2022-08-22T00:56:00,kcc,15.59
2022-08-22T00:58:00,kcc,34.80
2022-08-22T01:00:00,kcc,32.99
2022-08-22T01:02:00,kcc,23.44
2022-08-22T01:03:00,kcc,10.20
2022-08-22T01:05:00,kcc,20.98
2022-08-22T01:06:00,kcc,12.01
2022-08-22T01:07:00,kcc,9.61
2022-08-22T01:09:00,kcc,29.41
2022-08-22T01:11:00,kcc,38.96
2022-08-22T01:13:00,kcc,42.60
2022-08-22T01:14:00,kcc,25.78
2022-08-22T01:16:00,kcc,54.61
2022-08-22T01:18:00,kcc,34.80
2022-08-22T01:19:00,kcc,15.59
2022-08-22T01:21:00,kcc,35.45
2022-08-22T01:22:00,kcc,11.37
2022-08-22T01:24:00,kcc,17.40
2022-08-22T01:25:00,kcc,7.79
2022-08-22T01:26:00,kcc,7.79
2022-08-22T01:27:00,kcc,15.64
2022-08-22T01:29:00,kcc,17.99
2022-08-22T01:30:00,kcc,9.61
2022-08-22T01:32:00,kcc,25.20
2022-08-22T01:33:00,kcc,21.56
2022-08-22T01:34:00,kcc,23.44
2022-08-22T01:36:00,kcc,45.00
2022-08-22T01:38:00,kcc,44.36
2022-08-22T01:40:00,kcc,25.84
2022-08-22T01:42:00,kcc,17.40
2022-08-22T01:43:00,kcc,9.61
2022-08-22T01:45:00,kcc,25.20
2022-08-22T01:46:00,kcc,17.99
2022-08-22T01:48:00,kcc,31.17
2022-08-22T01:49:00,kcc,15.64
2022-08-22T01:50:00,kcc,15.59
2022-08-22T01:52:00,kcc,23.38
2022-08-22T01:53:00,kcc,11.43
2022-08-22T01:54:00,kcc,11.95
2022-08-22T01:56:00,kcc,34.80
2022-08-22T01:58:00,kcc,33.05
2022-08-22T01:59:00,kcc,23.38
2022-08-22T02:01:00,kcc,33.57
2022-08-22T02:03:00,kcc,25.20
2022-08-22T02:05:00,kcc,25.25
2022-08-22T02:07:00,kcc,23.38
2022-08-22T02:09:00,kcc,23.38
2022-08-22T02:10:00,kcc,12.01
2022-08-22T02:12:00,kcc,20.98
2022-08-22T02:14:00,kcc,23.44
2022-08-22T02:16:00,kcc,23.38
2022-08-22T02:17:00,kcc,10.20
2022-08-22T02:19:00,kcc,28.83
2022-08-22T02:21:00,kcc,33.57
2022-08-22T02:23:00,kcc,32.99
2022-08-22T02:25:00,kcc,33.05
2022-08-22T02:26:00,kcc,11.95
2022-08-22T02:28:00,kcc,19.22
2022-08-22T02:29:00,kcc,9.61
2022-08-22T02:31:00,kcc,21.62
2022-08-22T02:32:00,kcc,9.55
2022-08-22T02:33:00,kcc,10.25
2022-08-22T02:35:00,kcc,20.98
2022-08-22T02:36:00,kcc,12.01
2022-08-22T02:38:00,kcc,21.56
2022-08-22T02:40:00,kcc,25.20
2022-08-22T02:41:00,kcc,13.83
2022-08-22T02:43:00,kcc,31.17
2022-08-22T02:44:00,kcc,15.64
2022-08-22T02:45:00,kcc,15.59
2022-08-22T02:47:00,kcc,31.17
2022-08-22T02:48:00,kcc,13.24
2022-08-22T02:50:00,kcc,25.78
2022-08-22T02:51:00,kcc,9.61
2022-08-22T02:53:00,kcc,23.38
2022-08-22T02:54:00,kcc,11.43
2022-08-22T02:55:00,kcc,10.20
2022-08-22T02:57:00,kcc,23.38
2022-08-22T02:59:00,kcc,23.44
2022-08-22T03:00:00,kcc,13.18
2022-08-22T03:02:00,kcc,25.78
2022-08-22T03:04:00,kcc,25.20
2022-08-22T03:06:00,kcc,25.20
2022-08-22T03:08:00,kcc,39.02
2022-08-22T03:10:00,kcc,35.39
2022-08-22T03:11:00,kcc,15.59
2022-08-22T03:13:00,kcc,33.05
2022-08-22T03:14:00,kcc,9.55
2022-08-22T03:16:00,kcc,19.80
2022-08-22T03:18:00,kcc,19.22
2022-08-22T03:20:00,kcc,19.80
2022-08-22T03:22:00,kcc,20.98
2022-08-22T03:24:00,kcc,29.41
2022-08-22T03:25:00,kcc,10.20
2022-08-22T03:27:00,kcc,21.04
2022-08-22T03:28:00,kcc,11.95
2022-08-22T03:30:00,kcc,23.44
2022-08-22T03:32:00,kcc,36.56
2022-08-22T03:34:00,kcc,35.39
2022-08-22T03:35:00,kcc,17.40
2022-08-22T03:36:00,kcc,17.40
2022-08-22T03:38:00,kcc,31.82
2022-08-22T03:40:00,kcc,19.22
2022-08-22T03:42:00,kcc,21.56
2022-08-22T03:43:00,kcc,9.61
2022-08-22T03:45:00,kcc,23.44
2022-08-22T03:46:00,kcc,9.55
2022-08-22T03:48:00,kcc,23.44
2022-08-22T03:50:00,kcc,23.38
2022-08-22T03:51:00,kcc,9.61
2022-08-22T03:53:00,kcc,21.62
2022-08-22T03:54:00,kcc,11.95
2022-08-22T03:56:00,kcc,34.80
2022-08-22T03:57:00,kcc,17.40
2022-08-22T03:59:00,kcc,37.21
2022-08-22T04:01:00,kcc,37.21
2022-08-22T04:02:00,kcc,15.59
2022-08-22T04:03:00,kcc,11.43
2022-08-22T04:04:00,kcc,12.01
2022-08-22T04:05:00,kcc,11.37
2022-08-22T04:07:00,kcc,31.23
2022-08-22T04:08:00,kcc,13.77
2022-08-22T04:10:00,kcc,31.23
2022-08-22T04:12:00,kcc,31.17
2022-08-22T04:14:00,kcc,32.99
2022-08-22T04:16:00,kcc,27.60
2022-08-22T04:18:00,kcc,25.25
2022-08-22T04:20:00,kcc,41.37
2022-08-22T04:21:00,kcc,21.04
2022-08-22T04:23:00,kcc,40.78
2022-08-22T04:25:00,kcc,38.96
2022-08-22T04:27:00,kcc,29.41
2022-08-22T04:28:00,kcc,12.01
2022-08-22T04:30:00,kcc,25.20
2022-08-22T04:32:00,kcc,23.38
2022-08-22T04:34:00,kcc,25.25
2022-08-22T04:36:00,kcc,27.60
2022-08-22T04:38:00,kcc,36.56
2022-08-22T04:40:00,kcc,35.39
2022-08-22T04:41:00,kcc,19.22
2022-08-22T04:43:00,kcc,43.18
2022-08-22T04:45:00,kcc,40.84
2022-08-22T04:47:00,kcc,40.78
2022-08-22T04:48:00,kcc,19.80
2022-08-22T04:50:00,kcc,38.96
2022-08-22T04:51:00,kcc,15.64
2022-08-22T04:53:00,kcc,29.36
2022-08-22T04:55:00,kcc,27.01
2022-08-22T04:56:00,kcc,13.83
2022-08-22T04:58:00,kcc,25.20
2022-08-22T05:00:00,kcc,25.20
2022-08-22T05:02:00,kcc,23.38
2022-08-22T05:03:00,kcc,12.01
2022-08-22T05:05:00,kcc,31.23
2022-08-22T05:07:00,kcc,37.15
2022-08-22T05:08:00,kcc,19.22
2022-08-22T05:10:00,kcc,39.02
2022-08-22T05:11:00,kcc,19.80
2022-08-22T05:12:00,kcc,17.40
2022-08-22T05:14:00,kcc,26.95
2022-08-22T05:15:00,kcc,12.01
2022-08-22T05:17:00,kcc,25.20
2022-08-22T05:18:00,kcc,12.01
2022-08-22T05:20:00,kcc,25.20
2022-08-22T05:21:00,kcc,11.43
2022-08-22T05:22:00,kcc,12.01
2022-08-22T05:23:00,kcc,11.37
2022-08-22T05:25:00,kcc,23.38
2022-08-22T05:26:00,kcc,12.01
2022-08-22T05:28:00,kcc,25.20
2022-08-22T05:29:00,kcc,19.80
2022-08-22T05:31:00,kcc,46.82
2022-08-22T05:33:00,kcc,39.02
2022-08-22T05:34:00,kcc,19.16
2022-08-22T05:36:00,kcc,35.39
2022-08-22T05:37:00,kcc,13.24
2022-08-22T05:39:00,kcc,21.56
2022-08-22T05:41:00,kcc,23.44
2022-08-22T05:43:00,kcc,23.38
2022-08-22T05:45:00,kcc,23.38
2022-08-22T05:47:00,kcc,25.25
2022-08-22T05:48:00,kcc,13.77
2022-08-22T05:50:00,kcc,25.20
2022-08-22T05:51:00,kcc,12.01
2022-08-22T05:53:00,kcc,40.78
2022-08-22T05:54:00,kcc,21.62
2022-08-22T05:57:00,kcc,64.22
2022-08-22T05:59:00,kcc,37.15
2022-08-22T06:01:00,kcc,25.25
2022-08-22T06:02:00,kcc,13.77
2022-08-22T06:03:00,kcc,19.22
2022-08-22T06:05:00,kcc,54.61
2022-08-22T06:07:00,kcc,54.55
2022-08-22T06:09:00,kcc,54.61
2022-08-22T06:10:00,kcc,27.60
2022-08-22T06:12:00,kcc,48.63
2022-08-22T06:13:00,kcc,19.80
2022-08-22T06:15:00,kcc,36.56
2022-08-22T06:17:00,kcc,39.61
2022-08-22T06:19:00,kcc,40.78
2022-08-22T06:21:00,kcc,39.02
2022-08-22T06:23:00,kcc,32.99
2022-08-22T06:24:00,kcc,17.40
2022-08-22T06:26:00,kcc,43.18
2022-08-22T06:27:00,kcc,27.01
2022-08-22T06:28:00,kcc,27.60
2022-08-22T06:30:00,kcc,54.61
2022-08-22T06:32:00,kcc,48.63
2022-08-22T06:33:00,kcc,17.40
2022-08-22T06:35:00,kcc,35.39
2022-08-22T06:36:00,kcc,17.40
2022-08-22T06:38:00,kcc,34.80
2022-08-22T06:40:00,kcc,38.96
2022-08-22T06:41:00,kcc,19.80
2022-08-22T06:42:00,kcc,19.22
2022-08-22T06:44:00,kcc,37.21
2022-08-22T06:45:00,kcc,17.40
2022-08-22T06:47:00,kcc,35.39
2022-08-22T06:49:00,kcc,25.20
2022-08-22T06:51:00,kcc,27.60
2022-08-22T06:53:00,kcc,39.02
2022-08-22T06:55:00,kcc,46.76
2022-08-22T06:56:00,kcc,23.44
2022-08-22T06:58:00,kcc,28.77
2022-08-22T07:00:00,kcc,37.21
2022-08-22T07:01:00,kcc,19.80
2022-08-22T07:03:00,kcc,39.02
2022-08-22T07:05:00,kcc,38.96
2022-08-22T07:06:00,kcc,17.40
2022-08-22T07:07:00,kcc,17.40
2022-08-22T07:09:00,kcc,35.39
2022-08-22T07:11:00,kcc,23.44
2022-08-22T07:12:00,kcc,11.37
2022-08-22T07:14:00,kcc,23.38
2022-08-22T07:16:00,kcc,25.25
2022-08-22T07:18:00,kcc,38.96
2022-08-22T07:20:00,kcc,52.79
2022-08-22T07:22:00,kcc,56.43
2022-08-22T07:23:00,kcc,29.41
2022-08-22T07:25:00,kcc,52.79
2022-08-22T07:27:00,kcc,40.78
2022-08-22T07:28:00,kcc,19.80
2022-08-22T07:29:00,kcc,19.22
2022-08-22T07:31:00,kcc,35.39
2022-08-22T07:32:00,kcc,11.37
2022-08-22T07:34:00,kcc,23.44
2022-08-22T07:36:00,kcc,25.20
2022-08-22T07:38:00,kcc,27.60
2022-08-22T07:40:00,kcc,23.38
2022-08-22T07:42:00,kcc,31.23
2022-08-22T07:44:00,kcc,37.21
2022-08-22T07:46:00,kcc,52.15
2022-08-22T07:47:00,kcc,27.60
2022-08-22T07:49:00,kcc,58.24
2022-08-22T07:50:00,kcc,29.41
2022-08-22T07:52:00,kcc,40.78
2022-08-22T07:54:00,kcc,27.60
2022-08-22T07:56:00,kcc,27.01
2022-08-22T07:58:00,kcc,27.60
2022-08-22T07:59:00,kcc,15.59
2022-08-22T08:01:00,kcc,25.20
2022-08-22T08:03:00,kcc,37.21
2022-08-22T08:04:00,kcc,19.22
2022-08-22T08:06:00,kcc,37.15
2022-08-22T08:08:00,kcc,39.02
2022-08-22T08:10:00,kcc,37.21
2022-08-22T08:12:00,kcc,46.82
2022-08-22T08:13:00,kcc,21.56
2022-08-22T08:15:00,kcc,42.60
2022-08-22T08:17:00,kcc,43.24
2022-08-22T08:18:00,kcc,25.20
2022-08-22T08:20:00,kcc,56.37
2022-08-22T08:22:00,kcc,45.00
2022-08-22T08:23:00,kcc,17.40
2022-08-22T08:25:00,kcc,45.00
2022-08-22T08:27:00,kcc,37.21
2022-08-22T08:29:00,kcc,36.62
2022-08-22T08:30:00,kcc,19.80
2022-08-22T08:32:00,kcc,37.21
2022-08-22T08:33:00,kcc,11.37
2022-08-22T08:34:00,kcc,12.01
2022-08-22T08:35:00,kcc,19.22
2022-08-22T08:37:00,kcc,43.18
2022-08-22T08:38:00,kcc,20.98
2022-08-22T08:39:00,kcc,21.62
2022-08-22T08:41:00,kcc,46.82
2022-08-22T08:43:00,kcc,40.78
2022-08-22T08:45:00,kcc,41.43
2022-08-22T08:47:00,kcc,42.60
2022-08-22T08:49:00,kcc,38.96
2022-08-22T08:51:00,kcc,37.21
2022-08-22T08:53:00,kcc,34.80
2022-08-22T08:55:00,kcc,37.21
2022-08-22T08:56:00,kcc,13.77
2022-08-22T08:58:00,kcc,40.84
2022-08-22T09:00:00,kcc,43.18
2022-08-22T09:02:00,kcc,54.61
2022-08-22T09:04:00,kcc,60.00
2022-08-22T09:06:00,kcc,57.01
2022-08-22T09:08:00,kcc,52.15
2022-08-22T09:09:00,kcc,25.84
2022-08-22T09:11:00,kcc,50.39
2022-08-22T09:13:00,kcc,48.57
2022-08-22T09:15:00,kcc,51.04
2022-08-22T09:16:00,kcc,27.01
2022-08-22T09:18:00,kcc,68.38
2022-08-22T09:20:00,kcc,72.01
2022-08-22T09:22:00,kcc,72.60
2022-08-22T09:23:00,kcc,36.56
2022-08-22T09:24:00,kcc,39.02
2022-08-22T09:26:00,kcc,84.02
2022-08-22T09:27:00,kcc,32.99
2022-08-22T09:29:00,kcc,62.40
2022-08-22T09:30:00,kcc,31.17
2022-08-22T09:32:00,kcc,46.82
2022-08-22T09:33:00,kcc,19.80
2022-08-22T09:34:00,kcc,17.40
2022-08-22T09:36:00,kcc,43.18
2022-08-22T09:37:00,kcc,21.04
2022-08-22T09:39:00,kcc,60.59
2022-08-22T09:40:00,kcc,29.41
2022-08-22T09:42:00,kcc,62.40
2022-08-22T09:44:00,kcc,79.75
2022-08-22T09:45:00,kcc,37.21
2022-08-22T09:47:00,kcc,73.83
2022-08-22T09:49:00,kcc,62.40
2022-08-22T09:51:00,kcc,57.01
2022-08-22T09:52:00,kcc,26.95
2022-08-22T09:54:00,kcc,58.83
2022-08-22T09:56:00,kcc,56.37
2022-08-22T09:58:00,kcc,54.61
2022-08-22T10:00:00,kcc,73.83
2022-08-22T10:01:00,kcc,38.96
2022-08-22T10:03:00,kcc,78.05
2022-08-22T10:04:00,kcc,37.21
2022-08-22T10:06:00,kcc,77.99
2022-08-22T10:08:00,kcc,58.77
2022-08-22T10:10:00,kcc,58.24
2022-08-22T10:12:00,kcc,56.37
2022-08-22T10:14:00,kcc,43.18
2022-08-22T10:15:00,kcc,19.22
2022-08-22T10:17:00,kcc,49.22
2022-08-22T10:18:00,kcc,27.01
2022-08-22T10:20:00,kcc,54.55
2022-08-22T10:21:00,kcc,25.20
2022-08-22T10:23:00,kcc,54.61
2022-08-22T10:24:00,kcc,31.23
2022-08-22T10:25:00,kcc,33.57
2022-08-22T10:27:00,kcc,75.59
2022-08-22T10:28:00,kcc,33.63
2022-08-22T10:30:00,kcc,64.22
2022-08-22T10:32:00,kcc,56.37
2022-08-22T10:34:00,kcc,70.20
2022-08-22T10:36:00,kcc,70.20
2022-08-22T10:38:00,kcc,76.23
2022-08-22T10:40:00,kcc,87.60
2022-08-22T10:42:00,kcc,72.01
2022-08-22T10:44:00,kcc,70.20
2022-08-22T10:45:00,kcc,35.39
2022-08-22T10:47:00,kcc,65.98
2022-08-22T10:49:00,kcc,64.80
2022-08-22T10:50:00,kcc,32.99
2022-08-22T10:51:00,kcc,34.80
2022-08-22T10:53:00,kcc,57.01
2022-08-22T10:55:00,kcc,46.82
2022-08-22T10:57:00,kcc,46.82
2022-08-22T10:59:00,kcc,46.76
2022-08-22T11:00:00,kcc,25.20
2022-08-22T11:02:00,kcc,58.24
2022-08-22T11:04:00,kcc,85.78
2022-08-22T11:05:00,kcc,41.37
2022-08-22T11:07:00,kcc,83.44
2022-08-22T11:09:00,kcc,91.82
2022-08-22T11:11:00,kcc,87.60
2022-08-22T11:12:00,kcc,35.39
2022-08-22T11:14:00,kcc,85.78
2022-08-22T11:16:00,kcc,81.62
2022-08-22T11:18:00,kcc,88.18
2022-08-22T11:19:00,kcc,44.41
2022-08-22T11:21:00,kcc,85.78
2022-08-22T11:22:00,kcc,43.18
2022-08-22T11:24:00,kcc,84.02
2022-08-22T11:25:00,kcc,44.41
2022-08-22T11:27:00,kcc,82.21
2022-08-22T11:29:00,kcc,85.78
2022-08-22T11:31:00,kcc,79.80
2022-08-22T11:32:00,kcc,45.00
2022-08-22T11:34:00,kcc,91.82
2022-08-22T11:36:00,kcc,95.39
2022-08-22T11:37:00,kcc,46.76
2022-08-22T11:39:00,kcc,95.45
2022-08-22T11:41:00,kcc,90.00
2022-08-22T11:43:00,kcc,73.77
2022-08-22T11:44:00,kcc,35.39
2022-08-22T11:46:00,kcc,73.83
2022-08-22T11:48:00,kcc,76.17
2022-08-22T11:50:00,kcc,97.21
2022-08-22T11:52:00,kcc,88.18
2022-08-22T11:54:00,kcc,83.44
2022-08-22T11:55:00,kcc,43.18
2022-08-22T11:56:00,kcc,45.00
2022-08-22T11:58:00,kcc,87.60
2022-08-22T12:00:00,kcc,87.60
2022-08-22T12:02:00,kcc,84.02
2022-08-22T12:04:00,kcc,73.77
2022-08-22T12:05:00,kcc,37.21
2022-08-22T12:07:00,kcc,72.01
2022-08-22T12:09:00,kcc,82.21
2022-08-22T12:11:00,kcc,87.60
2022-08-22T12:12:00,kcc,46.82
2022-08-22T12:14:00,kcc,91.76
2022-08-22T12:16:00,kcc,93.63
2022-08-22T12:18:00,kcc,87.60
2022-08-22T12:20:00,kcc,76.17
2022-08-22T12:22:00,kcc,72.01
2022-08-22T12:24:00,kcc,74.41
2022-08-22T12:26:00,kcc,83.38
2022-08-22T12:28:00,kcc,84.02
2022-08-22T12:29:00,kcc,45.00
2022-08-22T12:30:00,kcc,45.00
2022-08-22T12:32:00,kcc,91.17
2022-08-22T12:33:00,kcc,41.43
2022-08-22T12:35:00,kcc,83.38
2022-08-22T12:37:00,kcc,80.39
2022-08-22T12:39:00,kcc,73.83
2022-08-22T12:40:00,kcc,37.21
2022-08-22T12:42:00,kcc,73.77
2022-08-22T12:43:00,kcc,41.43
2022-08-22T12:45:00,kcc,83.38
2022-08-22T12:47:00,kcc,84.02
2022-08-22T12:48:00,kcc,37.21
2022-08-22T12:50:00,kcc,73.77
2022-08-22T12:51:00,kcc,35.39
2022-08-22T12:52:00,kcc,40.84
2022-08-22T12:54:00,kcc,85.78
2022-08-22T12:56:00,kcc,84.02
2022-08-22T12:58:00,kcc,79.80
2022-08-22T13:00:00,kcc,85.78
2022-08-22T13:01:00,kcc,40.78
2022-08-22T13:03:00,kcc,84.02
2022-08-22T13:05:00,kcc,82.21
2022-08-22T13:06:00,kcc,82.21
2022-08-22T13:07:00,kcc,73.77
2022-08-22T13:08:00,kcc,40.78
2022-08-22T13:10:00,kcc,72.66
2022-08-22T13:11:00,kcc,40.78
2022-08-22T13:13:00,kcc,83.96
2022-08-22T13:15:00,kcc,85.84
2022-08-22T13:17:00,kcc,87.60
2022-08-22T13:19:00,kcc,79.80
2022-08-22T13:20:00,kcc,43.18
2022-08-22T13:22:00,kcc,83.38
2022-08-22T13:23:00,kcc,43.24
2022-08-22T13:24:00,kcc,45.00
2022-08-22T13:26:00,kcc,83.38
2022-08-22T13:27:00,kcc,43.18
2022-08-22T13:28:00,kcc,45.00
2022-08-22T13:30:00,kcc,83.44
2022-08-22T13:32:00,kcc,82.21
2022-08-22T13:33:00,kcc,45.00
2022-08-22T13:35:00,kcc,81.56
2022-08-22T13:36:00,kcc,37.21
2022-08-22T13:38:00,kcc,76.23
2022-08-22T13:39:00,kcc,38.96
2022-08-22T13:40:00,kcc,36.62
2022-08-22T13:42:00,kcc,80.39
2022-08-22T13:43:00,kcc,40.78
2022-08-22T13:44:00,kcc,42.60
2022-08-22T13:46:00,kcc,84.02
2022-08-22T13:48:00,kcc,83.96
2022-08-22T13:49:00,kcc,40.84
2022-08-22T13:51:00,kcc,90.00
2022-08-22T13:52:00,kcc,48.57
2022-08-22T13:53:00,kcc,48.63
2022-08-22T13:56:00,kcc,48.57
2022-08-22T13:58:00,kcc,87.60
2022-08-22T14:00:00,kcc,72.01
2022-08-22T14:02:00,kcc,72.60
2022-08-22T14:03:00,kcc,37.21
2022-08-22T14:04:00,kcc,36.62
2022-08-22T14:06:00,kcc,72.01
2022-08-22T14:08:00,kcc,82.15
2022-08-22T14:09:00,kcc,40.84
2022-08-22T14:11:00,kcc,83.96
2022-08-22T14:13:00,kcc,84.02
2022-08-22T14:15:00,kcc,81.62
2022-08-22T14:17:00,kcc,95.39
2022-08-22T14:19:00,kcc,93.57
2022-08-22T14:20:00,kcc,93.57
2022-08-22T14:21:00,kcc,93.63
2022-08-22T14:23:00,kcc,93.57
2022-08-22T14:25:00,kcc,91.82
2022-08-22T14:27:00,kcc,83.96
2022-08-22T14:29:00,kcc,85.84
2022-08-22T14:31:00,kcc,83.96
2022-08-22T14:32:00,kcc,44.41
2022-08-22T14:34:00,kcc,93.63
2022-08-22T14:38:00,kcc,89.41
2022-08-22T14:40:00,kcc,91.76
2022-08-22T14:41:00,kcc,43.24
2022-08-22T14:43:00,kcc,93.57
2022-08-22T14:45:00,kcc,81.62
2022-08-22T14:47:00,kcc,83.96
2022-08-22T14:49:00,kcc,73.83
2022-08-22T14:51:00,kcc,74.36
2022-08-22T14:52:00,kcc,37.21
2022-08-22T14:54:00,kcc,75.64
2022-08-22T14:56:00,kcc,82.15
2022-08-22T14:58:00,kcc,85.84
2022-08-22T15:00:00,kcc,97.21
2022-08-22T15:02:00,kcc,97.79
2022-08-22T15:04:00,kcc,91.82
2022-08-22T15:05:00,kcc,48.57
2022-08-22T15:07:00,kcc,93.57
2022-08-22T15:08:00,kcc,45.00
2022-08-22T15:10:00,kcc,79.80
2022-08-22T15:11:00,kcc,45.00
2022-08-22T15:12:00,kcc,40.84
2022-08-22T15:13:00,kcc,45.00
2022-08-22T15:15:00,kcc,76.17
2022-08-22T15:17:00,kcc,81.62
2022-08-22T15:19:00,kcc,70.20
2022-08-22T15:21:00,kcc,73.77
2022-08-22T15:23:00,kcc,80.45
2022-08-22T15:25:00,kcc,83.96
2022-08-22T15:27:00,kcc,87.60
2022-08-22T15:28:00,kcc,44.41
2022-08-22T15:30:00,kcc,84.02
2022-08-22T15:32:00,kcc,74.36
2022-08-22T15:33:00,kcc,36.62
2022-08-22T15:35:00,kcc,74.41
2022-08-22T15:36:00,kcc,34.80
2022-08-22T15:38:00,kcc,72.60
2022-08-22T15:40:00,kcc,79.80
2022-08-22T15:42:00,kcc,83.96
2022-08-22T15:44:00,kcc,81.62
2022-08-22T15:45:00,kcc,43.18
2022-08-22T15:47:00,kcc,85.78
2022-08-22T15:49:00,kcc,93.63
2022-08-22T15:50:00,kcc,44.41
2022-08-22T15:52:00,kcc,93.57
2022-08-22T15:54:00,kcc,91.82
2022-08-22T15:55:00,kcc,43.18
2022-08-22T15:56:00,kcc,42.60
2022-08-22T15:58:00,kcc,95.39
2022-08-22T15:59:00,kcc,45.00
2022-08-22T16:00:00,kcc,43.24
2022-08-22T16:02:00,kcc,85.78
2022-08-22T16:04:00,kcc,89.41
2022-08-22T16:06:00,kcc,97.79
2022-08-22T16:08:00,kcc,93.57
2022-08-22T16:13:00,kcc,54.61
2022-08-22T16:22:00,kcc,48.63
2022-08-22T16:23:00,kcc,46.76
2022-08-22T16:24:00,kcc,51.04
2022-08-22T16:26:00,kcc,85.78
2022-08-22T16:28:00,kcc,79.80
2022-08-22T16:30:00,kcc,76.23
2022-08-22T16:31:00,kcc,38.96
2022-08-22T16:33:00,kcc,81.62
2022-08-22T16:35:00,kcc,88.18
2022-08-22T16:36:00,kcc,42.60
2022-08-22T16:37:00,kcc,42.60
2022-08-22T16:41:00,kcc,83.38
2022-08-22T16:42:00,kcc,37.21
2022-08-22T16:44:00,kcc,70.20
2022-08-22T16:46:00,kcc,68.38
2022-08-22T16:48:00,kcc,73.83
2022-08-22T16:49:00,kcc,35.39
2022-08-22T16:51:00,kcc,70.20
2022-08-22T16:52:00,kcc,45.00
2022-08-22T16:53:00,kcc,46.82
2022-08-22T16:55:00,kcc,93.57
2022-08-22T16:56:00,kcc,46.82
2022-08-22T16:58:00,kcc,97.21
2022-08-22T16:59:00,kcc,48.57
2022-08-22T17:01:00,kcc,93.63
2022-08-22T17:03:00,kcc,91.82
2022-08-22T17:05:00,kcc,74.36
2022-08-22T17:07:00,kcc,70.20
2022-08-22T17:09:00,kcc,62.40
2022-08-22T17:11:00,kcc,67.79
2022-08-22T17:13:00,kcc,84.02
2022-08-22T17:15:00,kcc,79.80
2022-08-22T17:16:00,kcc,41.43
2022-08-22T17:18:00,kcc,93.57
2022-08-22T17:20:00,kcc,83.38
2022-08-22T17:21:00,kcc,29.41
2022-08-22T17:23:00,kcc,62.40
2022-08-22T17:25:00,kcc,72.01
2022-08-22T17:27:00,kcc,85.78
2022-08-22T17:29:00,kcc,85.78
2022-08-22T17:30:00,kcc,39.02
2022-08-22T17:32:00,kcc,74.41
2022-08-22T17:34:00,kcc,72.01
2022-08-22T17:36:00,kcc,70.20
2022-08-22T17:38:00,kcc,70.20
2022-08-22T17:40:00,kcc,70.20
2022-08-22T17:41:00,kcc,32.99
2022-08-22T17:43:00,kcc,74.41
2022-08-22T17:45:00,kcc,91.82
2022-08-22T17:47:00,kcc,89.36
2022-08-22T17:49:00,kcc,90.00
2022-08-22T17:51:00,kcc,66.04
2022-08-22T17:52:00,kcc,31.17
2022-08-22T17:54:00,kcc,58.83
2022-08-22T17:55:00,kcc,32.99
2022-08-22T17:57:00,kcc,68.38
2022-08-22T17:58:00,kcc,32.99
2022-08-22T18:00:00,kcc,73.83
2022-08-22T18:02:00,kcc,60.59
2022-08-22T18:04:00,kcc,54.61
2022-08-22T18:06:00,kcc,56.43
2022-08-22T18:08:00,kcc,54.55
2022-08-22T18:09:00,kcc,27.66
2022-08-22T18:11:00,kcc,60.59
2022-08-22T18:13:00,kcc,64.16
2022-08-22T18:14:00,kcc,29.41
2022-08-22T18:16:00,kcc,56.43
2022-08-22T18:17:00,kcc,27.01
2022-08-22T18:18:00,kcc,29.36
2022-08-22T18:20:00,kcc,51.04
2022-08-22T18:22:00,kcc,44.36
2022-08-22T18:24:00,kcc,45.00
2022-08-22T18:25:00,kcc,21.62
2022-08-22T18:27:00,kcc,52.79
2022-08-22T18:29:00,kcc,40.84
2022-08-22T18:31:00,kcc,34.75
2022-08-22T18:33:00,kcc,37.21
2022-08-22T18:34:00,kcc,15.64
2022-08-22T18:36:00,kcc,27.60
2022-08-22T18:37:00,kcc,13.18
2022-08-22T18:38:00,kcc,13.18
2022-08-22T18:39:00,kcc,58.77
2022-08-22T18:40:00,kcc,33.05
2022-08-22T18:41:00,kcc,35.39
2022-08-22T18:43:00,kcc,77.99
2022-08-22T18:44:00,kcc,32.99
2022-08-22T18:46:00,kcc,56.43
2022-08-22T18:47:00,kcc,21.56
2022-08-22T18:49:00,kcc,42.60
2022-08-22T18:50:00,kcc,25.84
2022-08-22T18:52:00,kcc,50.39
2022-08-22T18:54:00,kcc,60.59
2022-08-22T18:56:00,kcc,56.43
2022-08-22T18:57:00,kcc,25.20
2022-08-22T18:59:00,kcc,62.40
2022-08-22T19:01:00,kcc,77.99
2022-08-22T19:03:00,kcc,76.17
2022-08-22T19:04:00,kcc,35.45
2022-08-22T19:06:00,kcc,46.76
2022-08-22T19:08:00,kcc,34.80
2022-08-22T19:10:00,kcc,32.99
2022-08-22T19:12:00,kcc,37.21
2022-08-22T19:13:00,kcc,17.40
2022-08-22T19:15:00,kcc,29.41
2022-08-22T19:17:00,kcc,39.02
2022-08-22T19:19:00,kcc,35.39
2022-08-22T19:21:00,kcc,44.41
2022-08-22T19:22:00,kcc,27.60
2022-08-22T19:24:00,kcc,42.60
2022-08-22T19:26:00,kcc,43.18
2022-08-22T19:27:00,kcc,21.62
2022-08-22T19:29:00,kcc,40.78
2022-08-22T19:30:00,kcc,13.77
2022-08-22T19:31:00,kcc,13.24
2022-08-22T19:33:00,kcc,27.60
2022-08-22T19:34:00,kcc,17.40
2022-08-22T19:35:00,kcc,17.40
2022-08-22T19:37:00,kcc,38.96
2022-08-22T19:39:00,kcc,43.24
2022-08-22T19:40:00,kcc,26.95
2022-08-22T19:42:00,kcc,49.22
2022-08-22T19:44:00,kcc,42.60
2022-08-22T19:45:00,kcc,15.59
2022-08-22T19:47:00,kcc,37.21
2022-08-22T19:49:00,kcc,42.60
2022-08-22T19:51:00,kcc,41.43
2022-08-22T19:52:00,kcc,13.18
2022-08-22T19:53:00,kcc,12.01
2022-08-22T19:55:00,kcc,21.56
2022-08-22T19:56:00,kcc,7.85
2022-08-22T19:58:00,kcc,25.20
2022-08-22T19:59:00,kcc,17.40
2022-08-22T20:01:00,kcc,45.00
2022-08-22T20:03:00,kcc,52.79
2022-08-22T20:05:00,kcc,62.40
2022-08-22T20:07:00,kcc,40.78
2022-08-22T20:09:00,kcc,31.23
2022-08-22T20:10:00,kcc,15.59
2022-08-22T20:12:00,kcc,37.21
2022-08-22T20:13:00,kcc,25.20
2022-08-22T20:15:00,kcc,50.98
2022-08-22T20:17:00,kcc,36.62
2022-08-22T20:19:00,kcc,31.17
2022-08-22T20:21:00,kcc,31.23
2022-08-22T20:23:00,kcc,32.99
2022-08-22T20:25:00,kcc,37.21
2022-08-22T20:27:00,kcc,48.57
2022-08-22T20:28:00,kcc,23.44
2022-08-22T20:30:00,kcc,41.37
2022-08-22T20:32:00,kcc,34.80
2022-08-22T20:34:00,kcc,21.62
2022-08-22T20:35:00,kcc,7.79
2022-08-22T20:36:00,kcc,7.79
2022-08-22T20:38:00,kcc,27.01
2022-08-22T20:40:00,kcc,27.60
2022-08-22T20:41:00,kcc,13.77
2022-08-22T20:42:00,kcc,15.64
2022-08-22T20:44:00,kcc,44.36
2022-08-22T20:45:00,kcc,23.44
2022-08-22T20:46:00,kcc,23.38
2022-08-22T20:48:00,kcc,50.98
2022-08-22T20:50:00,kcc,56.43
2022-08-22T20:52:00,kcc,43.18
2022-08-22T20:54:00,kcc,42.60
2022-08-22T20:55:00,kcc,15.64
2022-08-22T20:56:00,kcc,9.55
2022-08-22T20:58:00,kcc,25.84
2022-08-22T20:59:00,kcc,13.18
2022-08-22T21:01:00,kcc,31.17
2022-08-22T21:02:00,kcc,18.05
2022-08-22T21:04:00,kcc,31.17
2022-08-22T21:06:00,kcc,34.80
2022-08-22T21:08:00,kcc,40.78
2022-08-22T21:10:00,kcc,46.82
2022-08-22T21:11:00,kcc,25.78
2022-08-22T21:13:00,kcc,50.45
2022-08-22T21:15:00,kcc,31.17
2022-08-22T21:17:00,kcc,29.41
2022-08-22T21:19:00,kcc,19.22
2022-08-22T21:21:00,kcc,21.56
2022-08-22T21:22:00,kcc,9.61
2022-08-22T21:24:00,kcc,31.17
2022-08-22T21:25:00,kcc,21.62
2022-08-22T21:27:00,kcc,43.18
2022-08-22T21:29:00,kcc,48.63
2022-08-22T21:31:00,kcc,48.57
2022-08-22T21:33:00,kcc,45.00
2022-08-22T21:34:00,kcc,15.64
2022-08-22T21:36:00,kcc,34.75
2022-08-22T21:38:00,kcc,27.60
2022-08-22T21:39:00,kcc,13.83
2022-08-22T21:41:00,kcc,28.83
2022-08-22T21:42:00,kcc,13.77
2022-08-22T21:44:00,kcc,29.41
2022-08-22T21:45:00,kcc,15.59
2022-08-22T21:47:00,kcc,42.60
2022-08-22T21:49:00,kcc,45.00
2022-08-22T21:51:00,kcc,45.00
2022-08-22T21:53:00,kcc,37.21
2022-08-22T21:55:00,kcc,34.80
2022-08-22T21:57:00,kcc,37.21
2022-08-22T21:59:00,kcc,42.60
2022-08-22T22:01:00,kcc,37.21
2022-08-22T22:03:00,kcc,33.57
2022-08-22T22:04:00,kcc,21.04
2022-08-22T22:05:00,kcc,17.34
2022-08-22T22:07:00,kcc,33.63
2022-08-22T22:09:00,kcc,39.02
2022-08-22T22:10:00,kcc,19.16
2022-08-22T22:11:00,kcc,17.40
2022-08-22T22:12:00,kcc,13.83
2022-08-22T22:14:00,kcc,25.20